Regional Weather Roundup
Issued by NWS Charleston, SC

Current Version | Previous Version | Text Only | Print | Product List | Glossary Off
Versions: 1 2 3 4 5 6 7 8 9 10 11 12 13 14 15 16 17 18 19 20 21 22 23 24 25 26 27 28 29 30 31 32 33 34 35 36 37 38 39 40 41 42 43 44 45 46 47 48 49 50

000
ASUS42 KCHS 290927
RWRCHS

REGIONAL WEATHER ROUNDUP
NATIONAL WEATHER SERVICE CHARLESTON SC
500 AM EDT SAT AUG 29 2015

NOTE: "FAIR" INDICATES FEW OR NO CLOUDS BELOW 12,000 FEET WITH NO
SIGNIFICANT WEATHER AND/OR OBSTRUCTIONS TO VISIBILITY.

NOT ALL STATIONS ARE QUALITY CONTROLLED BY THE NATIONAL
WEATHER SERVICE. USE DATA WITH CAUTION...ESPECIALLY
DEWPOINT OBSERVATIONS.

SCZ027-030-031-034>040-042>050-291000-
...SOUTHEAST SOUTH CAROLINA...

CITY           SKY/WX    TMP DP  RH WIND       PRES   REMARKS
N CHARLESTON   PTCLDY    71  68  90 NE7       30.11S
WATERFRONT PRK   N/A     76  73  90 N7        30.09R
MOUNT PLEASANT FAIR      72  70  94 N5        30.12R
JOHNS ISLAND   FAIR      73  72  94 N7        30.11S
PINOPOLIS        N/A     75  70  83 NE10      30.04F
MONCKS CORNER  FAIR      72  66  83 CALM      30.13S
SUMMERVILLE    FAIR      68  68 100 CALM      30.13F
BEAUFORT MCAS  MOCLDY    73  71  93 N9        30.11S
BEAUFORT ARPT  FAIR      73  72  94 NE7       30.10S
HILTON HEAD IS MOCLDY    75  75 100 N7        30.11S
WALTERBORO     MOSUNNY   72  68  88 NE5       30.13F
ALLENDALE      FAIR      70  66  88 CALM      30.12F

...SOUTHERN MIDLANDS AND PEE DEE...

CITY           SKY/WX    TMP DP  RH WIND       PRES   REMARKS
GEORGETOWN     NOT AVBL
KINGSTREE      NOT AVBL
ORANGEBURG     PTCLDY    67  63  87 CALM      30.14S
BARNWELL       FAIR      68  64  88 CALM      30.14F
AIKEN          FAIR      64  59  82 CALM      30.19R
MANNING        FAIR      64  63  94 CALM      30.14S
COLUMBIA       PTCLDY    65  60  84 CALM      30.14F
SUMTER         PTCLDY    64  61  88 NE3       30.13S FOG
FLORENCE       CLEAR     66  63  90 N6        30.15S
MYRTLE BEACH   CLEAR     70  63  78 N7        30.15S
N MYRTLE BEACH CLEAR     68  65  90 N5        30.12F

$$

GAZ063-065-086>088-099>101-113>116-118-119-134>141-150-291000-
...SOUTHEAST GEORGIA...

CITY           SKY/WX    TMP DP  RH WIND       PRES   REMARKS
SAVANNAH ARPT  NOT AVBL
HUNTER AAF     PTCLDY    74  74 100 NE2       30.08S
FORT STEWART   MOCLDY    73  72  94 NE3       30.07F
STATESBORO     PTCLDY    71  32  23 CALM      30.11F
SYLVANIA       SUNNY     73  72  97 E6        30.13S
CLAXTON        NOT AVBL

...CSRA...CENTRAL AND FAR SOUTHEAST GEORGIA...

CITY           SKY/WX    TMP DP  RH WIND       PRES   REMARKS
THOMSON        PTCLDY    67  67 100 CALM      30.19S
AUGUSTA-BUSH   PTCLDY    66  65  96 CALM      30.13F
AUGUSTA-DANIEL PTCLDY    73  66  78 NE5       30.15S
SWAINSBORO     FAIR     N/A N/A N/A E3        30.13S
VIDALIA        MOCLDY    73  70  88 NE5       30.11S
EASTMAN        FAIR      74  74 100 E5        30.13F
HAZLEHURST     FAIR      75  75 100 E5        30.09F
ALMA           CLOUDY    74  72  93 CALM      30.09S
WAYCROSS       CLOUDY    77  76  99 CALM      30.08S
JESUP          FAIR      77  75  94 NE3       30.09F
BAXLEY         FAIR      75  73  94 NE5       30.09S
BRUNSWICK      MOCLDY    72  72 100 CALM      30.08S
SAINT SIMONS   CLOUDY    78  70  76 N12       30.07S

$$

SCZ027-028-034-036>038-045-046-048>050-GAZ119-141-291000-
...LAKE AND SUPPLEMENTAL COASTAL OBSERVATIONS...

STATION/POSITION TIME  TEMP    WIND        PRES    WAVE   SWELL
                       AIR SEA DIR/SP/G            HT/PER HT/PER/DIR
                 (UTC) (F)     (DEG/KT/KT) (MB)    (FT/S) (FT/S/D)
UPR LAKE MARION  NOT AVBL
WINYAH BAY       0800   72     350/  5     1019.0
LAKE MURRAY      0800   70      CALM  /  3 1020.7F
ACE BASIN NERRS  NOT AVBL
FORT PULASKI     NOT AVBL
SAPELO ISLAND    0900   77      10/  3     1018.0S

$$

ANZ835-935-AMZ111-154-330-350-352-354-370-450-454-472-291000-
...C-MAN AND BUOY OBSERVATIONS...

STATION/POSITION TIME  TEMP    WIND        PRES    WAVE   SWELL
                       AIR SEA DIR/SP/G            HT/PER HT/PER/DIR
                 (UTC) (F)     (DEG/KT/KT) (MB)    (FT/S) (FT/S/D)
BUOY 41004       0850   81 84   40/ 14/ 16 1018.4S   4/ 6   2/11
BUOY 41008       0850   82 85   60/ 10/ 12 1018.6S   3/ 6   3/ 60/ 6
FOLLY BEACH CMAN 0900   76     360/  8/ 12 1019.6S
CAPERS NEARSHORE 0808   80      40/ 14/ 17 1019.5F
FRIPP NEARSHORE  0800   81      50/ 14/ 16 1018.9S


STATION/POSITION TIME  TEMP    WIND        PRES    WAVE   SWELL
                       AIR SEA DIR/SP/G            HT/PER HT/PER/DIR
                 (UTC) (F)     (DEG/KT/KT) (MB)    (FT/S) (FT/S/D)
5E ST. MARYS GA  0821      86                N/A     3/11   2/100/11
FRYING PAN BUOY  0850   80 81   40/ 17/ 21 1019.1F   5/ 6   2/140/11
BUOY 41025       0850   78 82   30/ 17/ 19 1019.4F   5/11   3/100/11
CAPE LOOKOUT NC  0900   77      30/ 19/ 23 1019.5S
BUOY 41002       0850   82 83  220/ 12/ 12 1019.2R   4/11   3/ 90/11
BUOY 41010       0820   83 85  120/ 10/ 10 1018.0S
ST AUGUSTINE FL  0900   81 85  210/  1/  2 1018.6R


$$



USA.gov is the U.S. government's official web portal to all federal, state and local government web resources and services.